This is the latest recevied weather packets stored in our database for station/object AA6HF. If no packets are shown the sender has not sent any weather packets the latest 1 day(s).
| Time | Temp. | Humidity | Pressure | Rain* | Wind** | Luminosity | Snow |
|---|---|---|---|---|---|---|---|
| 1778006426 | 22.78° C | 34% | 1010.7 hPa | 0 mm | 0 m/s | - | - |
| 1778006126 | 23.33° C | 33% | 1010.6 hPa | 0 mm | 0 m/s | - | - |
| 1778005826 | 23.89° C | 32% | 1010.8 hPa | 0 mm | 0 m/s | - | - |
| 1778005526 | 24.44° C | 32% | 1010.7 hPa | 0 mm | 0.45 m/s, 281° | - | - |
| 1778005226 | 24.44° C | 32% | 1010.7 hPa | 0 mm | 0.45 m/s, 9° | - | - |
| 1778004926 | 23.89° C | 32% | 1010.6 hPa | 0 mm | 0 m/s | - | - |
| 1778004626 | 25° C | 31% | 1010.7 hPa | 0 mm | 0 m/s | - | - |
| 1778004326 | 23.89° C | 33% | 1010.7 hPa | 0 mm | 0 m/s | - | - |
| 1778004026 | 23.89° C | 33% | 1010.8 hPa | 0 mm | 0 m/s | - | - |
| 1778003726 | 23.89° C | 33% | 1010.7 hPa | 0 mm | 0 m/s | - | - |
| 1778003426 | 23.89° C | 34% | 1010.7 hPa | 0 mm | 0 m/s | - | - |
| 1778003126 | 23.89° C | 34% | 1010.7 hPa | 0 mm | 0 m/s | - | - |
| 1778002826 | 23.33° C | 34% | 1010.6 hPa | 0 mm | 0 m/s | - | - |
| 1778002526 | 23.33° C | 35% | 1010.6 hPa | 0 mm | 0 m/s | - | - |
| 1778002226 | 22.78° C | 35% | 1010.6 hPa | 0 mm | 0 m/s | - | - |
| 1778001926 | 23.33° C | 36% | 1010.6 hPa | 0 mm | 0 m/s | - | - |
| 1778001626 | 23.33° C | 36% | 1010.5 hPa | 0 mm | 0 m/s | - | - |
| 1778001326 | 22.78° C | 36% | 1010.5 hPa | 0 mm | 0 m/s | - | - |
| 1778001026 | 22.22° C | 37% | 1010.6 hPa | 0 mm | 0 m/s | - | - |
| 1778000726 | 22.78° C | 35% | 1010.6 hPa | 0 mm | 0 m/s | - | - |
| 1778000426 | 23.33° C | 37% | 1010.6 hPa | 0 mm | 0 m/s | - | - |
| 1778000126 | 22.78° C | 37% | 1010.7 hPa | 0 mm | 0 m/s | - | - |
| 1777999826 | 22.78° C | 37% | 1010.6 hPa | 0 mm | 0 m/s | - | - |
| 1777999526 | 22.78° C | 37% | 1010.6 hPa | 0 mm | 0 m/s | - | - |
| 1777999226 | 22.22° C | 38% | 1010.5 hPa | 0 mm | 0 m/s | - | - |
* Rain latest hour (hover to see other rain measurements)
** Current wind speed in m/s (hover to see current wind gust speed)